Previsão horária em Almyakovo

Hoje, 25 Janeiro, Segunda-feira

Tempo Temperatura Precipitação Vento Pressão Humidade
00:00 -44°C° 0 mm 1 m/s 772 mmHg 96%
01:00 -44°C° 0 mm 1 m/s 772 mmHg 96%
02:00 -44°C° 0 mm 1 m/s 772 mmHg 96%
03:00 -44°C° 0 mm 1 m/s 772 mmHg 97%
04:00 -44°C° 0 mm 1 m/s 772 mmHg 97%
05:00 -44°C° 0 mm 1 m/s 773 mmHg 97%
06:00 -44°C° 0 mm 1 m/s 773 mmHg 98%
07:00 -44°C° 0 mm 1 m/s 773 mmHg 98%
08:00 -44°C° 0 mm 1 m/s 773 mmHg 97%
09:00 -44°C° 0 mm 1 m/s 773 mmHg 97%
10:00 -43°C° 0 mm 1 m/s 773 mmHg 95%
11:00 -41°C° 0 mm 1 m/s 773 mmHg 93%
12:00 -40°C° 0 mm 1 m/s 773 mmHg 92%
13:00 -39°C° 0 mm 1 m/s 773 mmHg 92%
14:00 -39°C° 0 mm 1 m/s 773 mmHg 92%
15:00 -38°C° 0 mm 1 m/s 772 mmHg 92%
16:00 -38°C° 0 mm 1 m/s 773 mmHg 94%
17:00 -39°C° 0 mm 1 m/s 773 mmHg 96%
18:00 -38°C° 0 mm 0 m/s 773 mmHg 97%
19:00 -38°C° 0 mm 0 m/s 773 mmHg 97%
20:00 -39°C° 0 mm 0 m/s 773 mmHg 97%
21:00 -39°C° 0 mm 0 m/s 772 mmHg 98%
22:00 -40°C° 0 mm 0 m/s 772 mmHg 98%
23:00 -40°C° 0 mm 0 m/s 772 mmHg 98%

Amanhã, 26 Janeiro, Terça-feira

Tempo Temperatura Precipitação Vento Pressão Humidade
00:00 -41°C° 0 mm 0 m/s 772 mmHg 98%
01:00 -41°C° 0 mm 0 m/s 772 mmHg 97%
02:00 -41°C° 0 mm 0 m/s 772 mmHg 97%
03:00 -42°C° 0 mm 1 m/s 772 mmHg 97%
04:00 -43°C° 0 mm 1 m/s 772 mmHg 97%
05:00 -43°C° 0 mm 1 m/s 772 mmHg 97%
06:00 -43°C° 0 mm 1 m/s 772 mmHg 97%
07:00 -43°C° 0 mm 1 m/s 772 mmHg 96%
08:00 -43°C° 0 mm 1 m/s 772 mmHg 96%
09:00 -43°C° 0 mm 1 m/s 772 mmHg 96%
10:00 -41°C° 0 mm 1 m/s 772 mmHg 94%
11:00 -39°C° 0 mm 1 m/s 772 mmHg 92%
12:00 -37°C° 0 mm 1 m/s 772 mmHg 90%
13:00 -37°C° 0 mm 1 m/s 772 mmHg 90%
14:00 -36°C° 0 mm 1 m/s 771 mmHg 90%
15:00 -35°C° 0 mm 1 m/s 771 mmHg 91%
16:00 -36°C° 0 mm 1 m/s 771 mmHg 92%
17:00 -40°C° 0 mm 2 m/s 771 mmHg 93%
18:00 -40°C° 0 mm 2 m/s 771 mmHg 94%
19:00 -40°C° 0 mm 2 m/s 770 mmHg 94%
20:00 -39°C° 0 mm 2 m/s 770 mmHg 93%
21:00 -41°C° 0 mm 3 m/s 769 mmHg 92%
22:00 -40°C° 0 mm 3 m/s 768 mmHg 93%
23:00 -39°C° 0 mm 3 m/s 767 mmHg 93%

Depois de amanhã, 27 Janeiro, Quarta-feira

Tempo Temperatura Precipitação Vento Pressão Humidade
00:00 -38°C° 0 mm 3 m/s 767 mmHg 93%
01:00 -36°C° 0.1 mm 3 m/s 766 mmHg 94%
02:00 -35°C° 0.1 mm 3 m/s 764 mmHg 96%
03:00 -35°C° 0.1 mm 4 m/s 763 mmHg 97%
04:00 -34°C° 0.2 mm 4 m/s 762 mmHg 97%
05:00 -32°C° 0.2 mm 4 m/s 761 mmHg 97%
06:00 -31°C° 0.2 mm 4 m/s 760 mmHg 97%
07:00 -27°C° 0.3 mm 4 m/s 758 mmHg 96%
08:00 -25°C° 0.3 mm 4 m/s 757 mmHg 96%
09:00 -22°C° 0.3 mm 4 m/s 756 mmHg 95%
10:00 -19°C° 0.4 mm 4 m/s 755 mmHg 94%
11:00 -18°C° 0.4 mm 4 m/s 754 mmHg 93%
12:00 -16°C° 0.4 mm 4 m/s 753 mmHg 92%
13:00 -15°C° 0.3 mm 4 m/s 753 mmHg 93%
14:00 -14°C° 0.3 mm 4 m/s 752 mmHg 93%
15:00 -14°C° 0.3 mm 4 m/s 752 mmHg 93%
16:00 -12°C° 0.4 mm 4 m/s 752 mmHg 94%
17:00 -11°C° 0.4 mm 4 m/s 752 mmHg 94%
18:00 -10°C° 0.4 mm 4 m/s 752 mmHg 94%
19:00 -10°C° 0.4 mm 4 m/s 753 mmHg 94%
20:00 -9°C° 0.4 mm 4 m/s 753 mmHg 93%
21:00 -10°C° 0.4 mm 5 m/s 754 mmHg 93%
22:00 -12°C° 0.1 mm 4 m/s 755 mmHg 93%
23:00 -16°C° 0.1 mm 3 m/s 755 mmHg 93%

28 Janeiro, Quinta-feira

Tempo Temperatura Precipitação Vento Pressão Humidade
00:00 -19°C° 0.1 mm 3 m/s 756 mmHg 93%
01:00 -23°C° 0 mm 3 m/s 757 mmHg 93%
02:00 -24°C° 0 mm 2 m/s 758 mmHg 94%
03:00 -26°C° 0 mm 2 m/s 759 mmHg 95%
04:00 -27°C° 0 mm 2 m/s 759 mmHg 95%
05:00 -25°C° 0 mm 1 m/s 760 mmHg 95%
06:00 -27°C° 0 mm 1 m/s 760 mmHg 95%
07:00 -25°C° 0 mm 1 m/s 761 mmHg 94%
08:00 -25°C° 0 mm 1 m/s 761 mmHg 93%
09:00 -25°C° 0 mm 0 m/s 761 mmHg 92%
10:00 -24°C° 0.1 mm 0 m/s 761 mmHg 93%
11:00 -23°C° 0.1 mm 0 m/s 760 mmHg 94%
12:00 -22°C° 0.1 mm 1 m/s 760 mmHg 95%
13:00 -21°C° 0.4 mm 1 m/s 759 mmHg 96%
14:00 -20°C° 0.4 mm 1 m/s 757 mmHg 96%
15:00 -19°C° 0.4 mm 1 m/s 756 mmHg 97%
16:00 -18°C° 0.5 mm 1 m/s 755 mmHg 97%
17:00 -17°C° 0.5 mm 1 m/s 755 mmHg 97%
18:00 -16°C° 0.5 mm 1 m/s 754 mmHg 97%
19:00 -14°C° 0.7 mm 1 m/s 753 mmHg 97%
20:00 -13°C° 0.7 mm 1 m/s 752 mmHg 96%
21:00 -11°C° 0.7 mm 1 m/s 752 mmHg 96%
22:00 -11°C° 0.6 mm 1 m/s 752 mmHg 96%
23:00 -11°C° 0.6 mm 1 m/s 752 mmHg 96%

29 Janeiro, Sexta-feira

Tempo Temperatura Precipitação Vento Pressão Humidade
00:00 -14°C° 0.6 mm 2 m/s 751 mmHg 96%
01:00 -12°C° 0.5 mm 1 m/s 751 mmHg 96%
02:00 -12°C° 0.5 mm 1 m/s 751 mmHg 97%
03:00 -13°C° 0.5 mm 1 m/s 751 mmHg 97%
04:00 -13°C° 0.6 mm 1 m/s 751 mmHg 96%
05:00 -14°C° 0.6 mm 1 m/s 751 mmHg 96%
06:00 -14°C° 0.6 mm 1 m/s 751 mmHg 96%
07:00 -15°C° 0.2 mm 1 m/s 751 mmHg 96%
08:00 -16°C° 0.2 mm 1 m/s 751 mmHg 97%
09:00 -17°C° 0.2 mm 1 m/s 751 mmHg 97%
10:00 -15°C° 0 mm 1 m/s 752 mmHg 96%
11:00 -14°C° 0 mm 0 m/s 752 mmHg 95%
12:00 -13°C° 0 mm 0 m/s 752 mmHg 94%
13:00 -11°C° 0.1 mm 0 m/s 752 mmHg 94%
14:00 -10°C° 0.1 mm 1 m/s 752 mmHg 94%
15:00 -8°C° 0.1 mm 1 m/s 751 mmHg 95%
16:00 -8°C° 0.3 mm 2 m/s 751 mmHg 95%
17:00 -8°C° 0.3 mm 3 m/s 751 mmHg 95%
18:00 -7°C° 0.3 mm 3 m/s 751 mmHg 95%
19:00 -11°C° 0.5 mm 4 m/s 751 mmHg 94%
20:00 -14°C° 0.5 mm 4 m/s 751 mmHg 93%
21:00 -16°C° 0.5 mm 4 m/s 751 mmHg 93%
22:00 -19°C° 0 mm 4 m/s 752 mmHg 92%
23:00 -24°C° 0 mm 5 m/s 753 mmHg 91%

30 Janeiro, Sábado

Tempo Temperatura Precipitação Vento Pressão Humidade
00:00 -26°C° 0 mm 5 m/s 754 mmHg 90%
01:00 -29°C° 0 mm 4 m/s 756 mmHg 91%
02:00 -31°C° 0 mm 4 m/s 757 mmHg 91%
03:00 -32°C° 0 mm 3 m/s 758 mmHg 92%
04:00 -34°C° 0 mm 3 m/s 759 mmHg 93%
05:00 -36°C° 0 mm 3 m/s 760 mmHg 93%
06:00 -38°C° 0 mm 3 m/s 761 mmHg 93%
07:00 -37°C° 0 mm 2 m/s 762 mmHg 94%
08:00 -39°C° 0 mm 2 m/s 763 mmHg 95%
09:00 -40°C° 0 mm 2 m/s 764 mmHg 95%
10:00 -39°C° 0 mm 2 m/s 765 mmHg 94%
11:00 -38°C° 0 mm 2 m/s 765 mmHg 94%
12:00 -34°C° 0 mm 1 m/s 766 mmHg 93%
13:00 -33°C° 0 mm 1 m/s 766 mmHg 92%
14:00 -33°C° 0 mm 1 m/s 766 mmHg 92%
15:00 -32°C° 0 mm 1 m/s 767 mmHg 92%
16:00 -33°C° 0 mm 1 m/s 767 mmHg 93%
17:00 -34°C° 0 mm 1 m/s 767 mmHg 93%
18:00 -36°C° 0 mm 1 m/s 768 mmHg 94%
19:00 -35°C° 0 mm 1 m/s 767 mmHg 94%
20:00 -35°C° 0 mm 1 m/s 767 mmHg 94%
21:00 -35°C° 0 mm 1 m/s 767 mmHg 93%
22:00 -35°C° 0 mm 1 m/s 767 mmHg 93%
23:00 -35°C° 0 mm 1 m/s 767 mmHg 93%
Mostrar mais

Necessitamos do seu Consentimento

A Meteoprog e os seus Fornecedores de Serviços podem armazenar e aceder a dados pessoais como cookies, identificadores do dispositivo ou outras tecnologias semelhantes existentes no seu dispositivo e processar estes dados para personalizar conteúdos e anúncios, assim como funcionalidades nas redes sociais e análise de tráfego.

  • Armazenar e/ou aceder a informações no seu dispositivo

    Os cookies, identificadores do dispositivo ou outras informações podem ser armazenados ou acedidos no seu dispositivo, para os fins acima indicados.

  • Anúncios e conteúdos personalizados, medição de anúncios e conteúdos, dados sobre o público-alvo e desenvolvimento de produtos

    Os anúncios e os conteúdos podem ser personalizados com base num perfil. Podem ser adicionados dados adicionais para uma maior personalização dos anúncios e dos conteúdos. A eficácia dos anúncios e dos conteúdos pode ser medida. Podem ser obtidas informações sobre o público que visualizou os anúncios e os conteúdos. Estes dados podem ser usados para desenvolver ou melhorar sistemas, softwares ou a experiência do utilizador.

Ao clicar em "Eu concordo”, permitirá o uso de cookies, identificadores do dispositivo e web beacons mencionados ou outras tecnologias semelhantes. As configurações do navegador do seu dispositivo podem ser alteradas.

Para certos fins, podem ser invocados interesses legítimos ao invés de consentimento. Pode ler mais informação sobre este assunto na nossa Política de Privacidade e Cookies.